FENGYUN 1C DEB, 29762

Orbit data source: Space-Track

FENGYUN 1C DEB, 29762 is space debris in SSO originally from a launch on Mon, 10 May 1999 UTC launched from the Taiyaun Space Center, China (TSC). Fengyun 1C debris stems from the Chinese weather satellite Fengyun-1C, which was intentionally destroyed by a Chinese anti-satellite missile in 2007. This event dramatically increased the amount of space debris, with thousands of trackable fragments posing hazards to satellites and human spaceflight. The Fengyun 1C debris cloud has become a focal point in discussions about space sustainability and the need for international regulations to prevent the creation of new debris.

Loading next visibility...
Identifier
29762, 1999-025BC
Orbit
SSO
Country
Flag of CNCN / PRC
Related business
Manufacturer
Unknown
Mission
Spacecraft
Bus & Motor
Unknown
Mass
Unknown
Launch date (UTC)
1999-05-10 (27 years ago)
Launch vehicle
Unknown
Launch site
Taiyaun Space Center, China (TSC)
Object type
Payload
Rocket body
Debris
Shape & HBR
Unknown shape, 0.1 m
Radar Cross Section
Medium (>0.1 m² and <1 m²)

Expand to show TLE details & history
Last TLE update: 11 hours ago

TLE from 11 hours ago
0 FENGYUN 1C DEB
1 29762U 99025BC  26254.22336988  .00000279  00000-0  11800-3 0  9992
2 29762  98.6073 235.6255 0202198 263.4628 163.2371 14.22941540 18185
Epoch: 2026-09-11T05:21Z
TLE epoch observation values (Epoch: 2026-09-11T05:21:39.157Z)
Latitude
65.93747°
Longitude
145.25484°
Altitude
966.317 km
Speed
7.303 km/s
True Right ascension
14h 23m 40s
True Declination
65° 48' 46"
Sunlit
Object was in daylight at epoch
Visualization orbit readout
Latitude
Unknown
Longitude
Unknown
Altitude
Unknown
Speed
Unknown
Apparent Right ascension
Unknown
Apparent Declination
Unknown
Sunlit
N/A
Visualization observer readout
Local Sidereal Time
08:23:48
Azimuth
Unknown
Elevation
Unknown
Doppler factor
Unknown
Orbital elements
Apogee altitude
957.965 km
Perigee altitude
667.175 km
Semi-major axis
7,190.707 km
Eccentricity
0.02022
Inclination
98.6073°
RAAN
235.6255°
Arg. of periapsis
263.4628°
True anomaly
163.88954°
Mean anomaly
163.2371°
Eccentric anomaly
163.56488°
Mean motion
3.55947 °/min
Orbital period
101.14 mins
BSTAR
0.000118
Loading maneuver chart data...
Computing Atmospheric mass density...
Loading historical data...
Loading historical data...
Loading historical data...
Loading historical data...
Loading historical data...
Loading historical data...
Loading historical data...

Documentation

Showing up to 5 results
|